Powrót do katalogu

STARLINK-3393

AktywnyŁącznośćVLEO
NORAD 51132·PAYLOAD·🇺🇸 United States

Wystrzelony Jan 19, 2022 z Cape Canaveral Space Force Station

Loading…

Następne Przeloty (najbliższe 24 godziny)

TLE

ŚwieżeSource: CelesTrak SupGP

Epoka: Sep 14, 2026, 21:10 UTC

1 51132C 22005AE  26257.88243056 -.00067876  00000+0 -20053-2 0  2573
2 51132  53.1589 164.0758 0001313  95.5524 140.1988 15.34426032    16

Śledź STARLINK-3393 w czasie rzeczywistym z AllMySat

Download on the App Store